Flag Weather past 2 weeks in Prince George, British Columbia, Canada

Now
28 °F

Passing clouds.


Feels Like: 20 °F
Forecast: 29 / 35 °F
Wind: 9 mph from South

Location: Prince George

Current Time: Nov 24, 2014 at 1:47:28 AM

Latest Report: Nov 24, 2014 at 1:00 AM


Visibility: 9 mi

Pressure: 30.14 "Hg

Humidity: 86%

Dew point: 25 °F

Location of Prince GeorgeLocation

Historic Weather in Prince George — Graph

°F

Prince George temperature yesterday

Maximum temperature yesterday: 36 °F (at 11:00 AM)
Minimum temperature yesterday: 28 °F (at 2:00 AM)
Average temperature yesterday: 33 °F

Past Weeks' High & Low Weather Summary

 TemperatureHumidityPressure
High41 °F (Nov 20, 11:00 PM)100% (Nov 9, 12:00 AM)30.77 "Hg (Nov 9, 12:00 AM)
Low3 °F (Nov 12, 1:02 AM)39% (Nov 10, 2:00 PM)29.15 "Hg (Nov 21, 10:00 PM)
Average22 °F89%30.25 "Hg
* Reported Midnight between Nov 8 and Nov 9 — Midnight between Nov 23 and Nov 24, Prince George, Weather by CustomWeather, © 2014

Note: Actual official high and low records may vary slightly from our data, if they occured in-between our weather recording intervals... More about our weather records

Advertising

Prince George weather history for previous 24 hours

 ConditionsComfort  
Time TempWeatherWind HumidityBarometerVisibility
12:00 AM
Nov 24
30 °FClear.8 mph86%30.12 "Hg9 mi
11:00 PM
Nov 23
32 °FClear.6 mph87%30.10 "Hg9 mi
10:00 PM32 °FPassing clouds.8 mph87%30.07 "Hg9 mi
9:00 PM32 °FPassing clouds.5 mph93%30.04 "Hg9 mi
8:00 PM36 °FPassing clouds.7 mph87%30.02 "Hg9 mi
7:00 PM36 °FOvercast.5 mph87%29.98 "Hg9 mi
6:00 PM36 °FMostly cloudy.3 mph87%29.96 "Hg9 mi
5:00 PM36 °FMostly cloudy.5 mph87%29.92 "Hg9 mi
4:53 PM34 °FMostly cloudy.5 mph93%29.92 "Hg9 mi
4:00 PM34 °FMostly cloudy.6 mph93%29.88 "Hg9 mi
3:00 PM34 °FLight rain. Mostly cloudy.12 mph93%29.84 "Hg9 mi
2:04 PM34 °FLight rain. Overcast.10 mph93%29.82 "Hg9 mi
1:59 PM34 °FLight rain. Overcast.10 mph93%29.81 "Hg9 mi
1:00 PM32 °FLight snow. Low clouds.12 mph100%29.80 "Hg2 mi
12:55 PM34 °FLight snow. Low clouds.14 mph93%29.79 "Hg2 mi
12:00 PM34 °FLight snow. Mostly cloudy.13 mph93%29.78 "Hg6 mi
11:59 AM34 °FLight snow. Mostly cloudy.13 mph93%29.77 "Hg6 mi
11:00 AM36 °FBroken clouds.17 mph81%29.77 "Hg9 mi
10:00 AM34 °FScattered clouds.15 mph87%29.75 "Hg9 mi
9:00 AM34 °FSunny.14 mph87%29.74 "Hg9 mi
8:00 AM32 °FScattered clouds.17 mph93%29.73 "Hg9 mi
7:00 AM32 °FLight snow. Overcast.14 mph100%29.74 "Hg7 mi
6:59 AM32 °FLight snow. Overcast.14 mph100%29.74 "Hg6 mi
6:00 AM34 °FOvercast.12 mph81%29.75 "Hg9 mi
5:00 AM34 °FOvercast.15 mph81%29.76 "Hg9 mi
4:00 AM32 °FMostly cloudy.10 mph87%29.75 "Hg9 mi
3:00 AM32 °FPassing clouds.9 mph87%29.76 "Hg9 mi
2:00 AM28 °FPassing clouds.6 mph100%29.78 "Hg9 mi
1:00 AM30 °FClear.8 mph93%29.79 "Hg9 mi
Weather by CustomWeather, © 2014

See weather overviewHow to use our weather pages